Regional Weather Roundup
Issued by NWS

Home | Current Version | Previous Version | Text Only | Print | Product List | Glossary Off
Versions: 1 2 3 4 5 6 7 8 9 10 11 12 13 14 15 16 17 18 19 20 21 22 23 24 25 26 27 28 29 30 31 32 33 34 35 36 37 38 39 40 41 42 43 44 45 46 47 48 49 50

000
ASUS45 KSLC 030710
RWRUT

UTAH REGIONAL WEATHER ROUNDUP
NATIONAL WEATHER SERVICE SALT LAKE CITY UT
100 AM MDT THU SEP 03 2015

UTZ001>011-023>025-030800-

NORTHERN UTAH

CITY           SKY/WX    TMP DP  RH WIND       PRES   REMARKS
BRIGHAM CITY   MOCLDY    83  25  11 S20G31    29.84S
HILL AFB       CLOUDY    79  37  21 S17       29.90R
LOGAN          PTCLDY    78  37  22 S12       29.85S
OGDEN          MOCLDY    80  35  19 S20       29.87R
PROVO AIRPORT  MOCLDY    70  41  35 S8        29.96S
SALT LAKE CITY MOCLDY    82  36  19 SE23G31   29.86S
VERNAL         MOCLDY    65  45  48 W3        30.02S
WENDOVER       PTCLDY    81  25  12 SW23G29   29.83S
HEBER CITY     MOCLDY    72  34  25 SW5       30.02S
WEST JORDAN    CLEAR     79  39  24 SE16      29.93R

$$

UTZ012>022-026-027-030800-

SOUTHERN/CENTRAL UTAH

CITY           SKY/WX    TMP DP  RH WIND       PRES   REMARKS
BLANDING       CLOUDY    64  48  57 NW7       30.24F
BRYCE CANYON   PTCLDY    47  36  65 W3        30.25F
CEDAR CITY     MOCLDY    68  35  29 S9        30.08S
DELTA          PTCLDY    71  36  27 S14       29.98S
HANKSVILLE     MOCLDY    72  41  33 CALM      29.99S
MILFORD        MOCLDY    66  37  34 SW9       30.02S
MOAB/CYNLANDS  CLEAR     72  45  37 CALM      29.98R
PRICE          MOCLDY    66  40  38 NE7       30.07R
ST GEORGE      PTSUNNY   82  39  21 S7        29.93S

$$

REGIONAL REPORTS     COLORADO/ARIZONA

CITY           SKY/WX    TMP DP  RH WIND       PRES   REMARKS
CRAIG, CO      CLEAR     51  47  86 CALM      30.13S
GRAND JUNCTION PTCLDY    71  50  47 E14       30.02F
RIFLE          MOCLDY    62  53  72 CALM      30.10S
MONTROSE       MOCLDY    66  49  54 SE9       30.15S
CORTEZ         CLOUDY    63  56  78 CALM      30.17F
PAGE, AZ       PTCLDY    77  49  37 S13G21    30.02S
GRAND CANYON   CLEAR     51  45  79 CALM      30.24S
KINGMAN        CLEAR     73  42  32 S10       29.99S
FLAGSTAFF      PTCLDY    48  39  71 CALM      30.27F

$$

REGIONAL REPORTS    NEVADA/IDAHO/WYOMING

CITY           SKY/WX    TMP DP  RH WIND       PRES   REMARKS
LAS VEGAS, NV  PTCLDY    87  43  21 S9        29.81S
ELY            CLEAR     63  30  28 S13       30.05S
ELKO           CLEAR     61  22  22 S9        29.91R
POCATELLO, ID  CLEAR     65  43  44 SE8       29.80S
BURLEY         PTCLDY    57  43  59 W12       29.78R
EVANSTON, WY   PTCLDY    60  34  37 SW12      30.10S
ROCK SPRINGS   CLEAR     65  37  35 S12       30.09F
KEMMERER       PTCLDY    54  36  50 N5        30.11F

$$



USA.gov is the U.S. government's official web portal to all federal, state and local government web resources and services.